Wetterdaten: Mittwoch, 04.05.2016
Datum Zeit Auen-Temp. Temp gefhlt Luftfeuchte Luftdruck Regen Wind Richtung Richtung Sonnenschein Taupunkt Windben
04.05.2016 00:00 4,9 C 4,5 C 87 % 1023,4 hPa 0,0 mm 7,7 km/h (2 Bft) W-SW 247 0 min 2,9 C 9,2 km/h (2 Bft)
04.05.2016 00:05 4,8 C 4,4 C 87 % 1023,4 hPa 0,0 mm 7,2 km/h (2 Bft) W-SW 247 0 min 2,8 C 7,7 km/h (2 Bft)
04.05.2016 00:10 4,8 C 4,5 C 87 % 1023,4 hPa 0,0 mm 6,0 km/h (2 Bft) S 180 0 min 2,8 C 6,3 km/h (2 Bft)
04.05.2016 00:15 4,7 C 4,4 C 87 % 1023,6 hPa 0,0 mm 5,7 km/h (1 Bft) SO 135 0 min 2,7 C 12,2 km/h (2 Bft)
04.05.2016 00:20 4,6 C 4,2 C 87 % 1023,6 hPa 0,0 mm 6,6 km/h (2 Bft) SW 225 0 min 2,6 C 12,2 km/h (2 Bft)
04.05.2016 00:25 4,6 C 4,2 C 87 % 1023,6 hPa 0,0 mm 6,6 km/h (2 Bft) S 180 0 min 2,6 C 17,3 km/h (3 Bft)
04.05.2016 00:30 4,5 C 4,0 C 87 % 1023,6 hPa 0,0 mm 7,5 km/h (2 Bft) W-SW 247 0 min 2,5 C 6,3 km/h (2 Bft)
04.05.2016 00:35 4,5 C 3,9 C 87 % 1023,8 hPa 0,0 mm 8,6 km/h (2 Bft) S 180 0 min 2,5 C 18,5 km/h (3 Bft)
04.05.2016 00:40 4,5 C 3,9 C 87 % 1023,8 hPa 0,0 mm 9,5 km/h (2 Bft) W-SW 247 0 min 2,5 C 16,7 km/h (3 Bft)
04.05.2016 00:45 4,5 C 3,8 C 87 % 1023,8 hPa 0,0 mm 11,0 km/h (2 Bft) W-SW 247 0 min 2,5 C 19,7 km/h (3 Bft)
04.05.2016 00:50 4,5 C 3,8 C 87 % 1023,8 hPa 0,0 mm 10,1 km/h (2 Bft) SW 225 0 min 2,5 C 12,2 km/h (2 Bft)
04.05.2016 00:55 4,5 C 4,0 C 87 % 1024,0 hPa 0,0 mm 8,3 km/h (2 Bft) S 180 0 min 2,5 C 22,1 km/h (4 Bft)
04.05.2016 01:00 4,6 C 4,1 C 87 % 1024,0 hPa 0,0 mm 7,5 km/h (2 Bft) SW 225 0 min 2,6 C 8,0 km/h (2 Bft)
04.05.2016 01:05 4,6 C 4,2 C 87 % 1024,0 hPa 0,0 mm 7,2 km/h (2 Bft) SW 225 0 min 2,6 C 11,3 km/h (2 Bft)
04.05.2016 01:10 4,6 C 4,2 C 87 % 1024,0 hPa 0,0 mm 6,6 km/h (2 Bft) NW 315 0 min 2,6 C 9,8 km/h (2 Bft)
04.05.2016 01:15 4,6 C 4,4 C 87 % 1023,8 hPa 0,0 mm 4,8 km/h (1 Bft) NW 315 0 min 2,6 C 3,0 km/h (1 Bft)
04.05.2016 01:20 4,5 C 4,3 C 87 % 1023,8 hPa 0,0 mm 4,5 km/h (1 Bft) W-SW 247 0 min 2,5 C 11,0 km/h (2 Bft)
04.05.2016 01:25 4,5 C 4,3 C 87 % 1023,8 hPa 0,0 mm 4,5 km/h (1 Bft) SW 225 0 min 2,5 C 3,9 km/h (1 Bft)
04.05.2016 01:30 4,4 C 4,2 C 87 % 1023,8 hPa 0,0 mm 4,8 km/h (1 Bft) S 180 0 min 2,4 C 11,6 km/h (2 Bft)
04.05.2016 01:35 4,4 C 4,2 C 87 % 1023,9 hPa 0,0 mm 4,8 km/h (1 Bft) W-NW 292 0 min 2,4 C 5,4 km/h (1 Bft)
04.05.2016 01:40 4,4 C 4,1 C 87 % 1023,9 hPa 0,0 mm 5,4 km/h (1 Bft) S 180 0 min 2,4 C 7,2 km/h (2 Bft)
04.05.2016 01:45 4,4 C 4,1 C 87 % 1023,9 hPa 0,0 mm 5,4 km/h (1 Bft) S-SW 202 0 min 2,4 C 7,5 km/h (2 Bft)
04.05.2016 01:50 4,4 C 4,0 C 87 % 1023,9 hPa 0,0 mm 6,3 km/h (2 Bft) SW 225 0 min 2,4 C 6,3 km/h (2 Bft)
04.05.2016 01:55 4,4 C 4,1 C 87 % 1023,8 hPa 0,0 mm 5,4 km/h (1 Bft) SW 225 0 min 2,4 C 10,1 km/h (2 Bft)
04.05.2016 02:00 4,4 C 4,2 C 87 % 1023,8 hPa 0,0 mm 4,2 km/h (1 Bft) W-SW 247 0 min 2,4 C 6,0 km/h (2 Bft)
04.05.2016 02:05 4,4 C 4,2 C 87 % 1023,8 hPa 0,0 mm 4,2 km/h (1 Bft) S-SW 202 0 min 2,4 C 8,6 km/h (2 Bft)
04.05.2016 02:10 4,4 C 4,2 C 87 % 1023,8 hPa 0,0 mm 5,1 km/h (1 Bft) W-SW 247 0 min 2,4 C 6,3 km/h (2 Bft)
04.05.2016 02:15 4,4 C 4,2 C 87 % 1023,7 hPa 0,0 mm 4,5 km/h (1 Bft) S 180 0 min 2,4 C 6,0 km/h (2 Bft)
04.05.2016 02:20 4,4 C 4,1 C 87 % 1023,7 hPa 0,0 mm 5,1 km/h (1 Bft) S 180 0 min 2,4 C 10,4 km/h (2 Bft)
04.05.2016 02:25 4,4 C 4,0 C 87 % 1023,7 hPa 0,0 mm 6,6 km/h (2 Bft) W-SW 247 0 min 2,4 C 7,2 km/h (2 Bft)
04.05.2016 02:30 4,4 C 4,0 C 87 % 1023,7 hPa 0,0 mm 6,6 km/h (2 Bft) S 180 0 min 2,4 C 9,5 km/h (2 Bft)
04.05.2016 02:35 4,4 C 4,0 C 87 % 1023,8 hPa 0,0 mm 6,6 km/h (2 Bft) W-SW 247 0 min 2,4 C 9,2 km/h (2 Bft)
04.05.2016 02:40 4,4 C 4,0 C 87 % 1023,8 hPa 0,0 mm 6,3 km/h (2 Bft) SW 225 0 min 2,4 C 7,7 km/h (2 Bft)
04.05.2016 02:45 4,3 C 4,0 C 87 % 1023,8 hPa 0,0 mm 5,7 km/h (1 Bft) W-SW 247 0 min 2,3 C 6,0 km/h (2 Bft)
04.05.2016 02:50 4,3 C 4,1 C 87 % 1023,8 hPa 0,0 mm 4,8 km/h (1 Bft) W-SW 247 0 min 2,3 C 5,1 km/h (1 Bft)
04.05.2016 02:55 4,2 C 4,0 C 86 % 1023,8 hPa 0,0 mm 3,3 km/h (1 Bft) W 270 0 min 2,1 C 3,9 km/h (1 Bft)
04.05.2016 02:57 0,0 C 4,0 C 86 % 1023,8 hPa 0,0 mm 2,4 km/h (1 Bft) W-SW 247 0 min -2,1 C 6,9 km/h (2 Bft)
04.05.2016 03:01 0,0 C 4,0 C 86 % 1023,8 hPa 0,0 mm 2,4 km/h (1 Bft) W-SW 247 0 min -2,1 C 6,9 km/h (2 Bft)
04.05.2016 03:05 0,0 C 4,1 C 87 % 1023,8 hPa 0,0 mm 4,5 km/h (1 Bft) W-SW 247 0 min -1,9 C 6,0 km/h (2 Bft)
04.05.2016 03:10 0,0 C 3,9 C 87 % 1023,8 hPa 0,0 mm 6,9 km/h (2 Bft) SW 225 0 min -1,9 C 10,1 km/h (2 Bft)
04.05.2016 03:15 0,0 C 3,9 C 87 % 1023,9 hPa 0,0 mm 6,9 km/h (2 Bft) N-NW 337 0 min -1,9 C 7,5 km/h (2 Bft)
04.05.2016 03:20 0,0 C 3,9 C 87 % 1023,9 hPa 0,0 mm 7,5 km/h (2 Bft) S 180 0 min -1,9 C 8,9 km/h (2 Bft)
04.05.2016 03:25 0,0 C 4,0 C 87 % 1023,9 hPa 0,0 mm 6,3 km/h (2 Bft) W-SW 247 0 min -1,9 C 7,7 km/h (2 Bft)
04.05.2016 03:30 0,0 C 4,0 C 87 % 1023,9 hPa 0,0 mm 6,6 km/h (2 Bft) W 270 0 min -1,9 C 8,3 km/h (2 Bft)
04.05.2016 03:35 0,0 C 4,0 C 87 % 1023,8 hPa 0,0 mm 7,2 km/h (2 Bft) SW 225 0 min -1,9 C 7,5 km/h (2 Bft)
04.05.2016 03:40 0,0 C 4,0 C 87 % 1023,8 hPa 0,0 mm 7,2 km/h (2 Bft) NO 45 0 min -1,9 C 13,4 km/h (3 Bft)
04.05.2016 03:45 0,0 C 4,2 C 87 % 1023,8 hPa 0,0 mm 6,3 km/h (2 Bft) S 180 0 min -1,9 C 3,0 km/h (1 Bft)
04.05.2016 03:50 0,0 C 4,3 C 87 % 1023,8 hPa 0,0 mm 5,1 km/h (1 Bft) W 270 0 min -1,9 C 0,0 km/h (0 Bft)
04.05.2016 03:55 0,0 C 4,2 C 87 % 1023,9 hPa 0,0 mm 1,8 km/h (1 Bft) W 270 0 min -1,9 C 0,0 km/h (0 Bft)
04.05.2016 04:00 0,0 C 4,2 C 87 % 1023,9 hPa 0,0 mm 0,9 km/h (0 Bft) S-SW 202 0 min -1,9 C 0,0 km/h (0 Bft)
04.05.2016 04:05 0,0 C 4,2 C 87 % 1023,9 hPa 0,0 mm 0,3 km/h (0 Bft) NW 315 0 min -1,9 C 0,0 km/h (0 Bft)
04.05.2016 04:10 0,0 C 4,2 C 87 % 1023,9 hPa 0,0 mm 1,2 km/h (1 Bft) W-SW 247 0 min -1,9 C 3,3 km/h (1 Bft)
04.05.2016 04:15 0,0 C 4,2 C 87 % 1024,0 hPa 0,0 mm 2,7 km/h (1 Bft) W-SW 247 0 min -1,9 C 5,7 km/h (1 Bft)
04.05.2016 04:20 0,0 C 4,2 C 87 % 1024,0 hPa 0,0 mm 3,6 km/h (1 Bft) S 180 0 min -1,9 C 6,0 km/h (2 Bft)
04.05.2016 04:25 0,0 C 4,3 C 87 % 1024,0 hPa 0,0 mm 4,2 km/h (1 Bft) W 270 0 min -1,9 C 3,0 km/h (1 Bft)
04.05.2016 04:30 0,0 C 4,3 C 86 % 1024,0 hPa 0,0 mm 3,0 km/h (1 Bft) SW 225 0 min -2,1 C 5,1 km/h (1 Bft)
04.05.2016 04:35 0,0 C 4,2 C 86 % 1024,0 hPa 0,0 mm 3,0 km/h (1 Bft) W-SW 247 0 min -2,1 C 5,7 km/h (1 Bft)
04.05.2016 04:40 0,0 C 4,1 C 86 % 1024,0 hPa 0,0 mm 3,6 km/h (1 Bft) SW 225 0 min -2,1 C 6,9 km/h (2 Bft)
04.05.2016 04:45 0,0 C 4,1 C 86 % 1024,0 hPa 0,0 mm 2,1 km/h (1 Bft) W-SW 247 0 min -2,1 C 0,0 km/h (0 Bft)
04.05.2016 04:50 0,0 C 4,0 C 86 % 1024,0 hPa 0,0 mm 2,1 km/h (1 Bft) SW 225 0 min -2,1 C 13,1 km/h (3 Bft)
04.05.2016 04:55 0,0 C 3,9 C 87 % 1023,9 hPa 0,0 mm 6,9 km/h (2 Bft) W-SW 247 0 min -1,9 C 8,0 km/h (2 Bft)
04.05.2016 05:00 4,3 C 3,8 C 87 % 1023,9 hPa 0,0 mm 8,3 km/h (2 Bft) N 360 0 min 2,3 C 3,3 km/h (1 Bft)
04.05.2016 05:05 4,3 C 4,1 C 86 % 1023,9 hPa 0,0 mm 3,6 km/h (1 Bft) SW 225 0 min 2,2 C 0,0 km/h (0 Bft)
04.05.2016 05:10 4,3 C 4,1 C 87 % 1023,9 hPa 0,0 mm 3,3 km/h (1 Bft) W-SW 247 0 min 2,3 C 6,3 km/h (2 Bft)
04.05.2016 05:15 4,3 C 4,1 C 86 % 1024,2 hPa 0,0 mm 5,1 km/h (1 Bft) W-SW 247 0 min 2,2 C 5,4 km/h (1 Bft)
04.05.2016 05:20 4,3 C 4,0 C 87 % 1024,2 hPa 0,0 mm 6,3 km/h (2 Bft) SW 225 0 min 2,3 C 9,5 km/h (2 Bft)
04.05.2016 05:25 4,3 C 3,9 C 87 % 1024,2 hPa 0,0 mm 8,3 km/h (2 Bft) W-SW 247 0 min 2,3 C 11,0 km/h (2 Bft)
04.05.2016 05:30 4,3 C 3,9 C 87 % 1024,2 hPa 0,0 mm 8,3 km/h (2 Bft) SW 225 0 min 2,3 C 9,2 km/h (2 Bft)
04.05.2016 05:35 4,3 C 3,9 C 87 % 1023,9 hPa 0,0 mm 8,3 km/h (2 Bft) S-SW 202 0 min 2,3 C 10,7 km/h (2 Bft)
04.05.2016 05:40 4,3 C 4,0 C 87 % 1023,9 hPa 0,0 mm 7,7 km/h (2 Bft) SW 225 0 min 2,3 C 10,4 km/h (2 Bft)
04.05.2016 05:45 4,3 C 4,0 C 87 % 1023,9 hPa 0,0 mm 7,2 km/h (2 Bft) S-SW 202 0 min 2,3 C 7,7 km/h (2 Bft)
04.05.2016 05:50 4,3 C 4,0 C 87 % 1023,9 hPa 0,0 mm 7,7 km/h (2 Bft) SW 225 0 min 2,3 C 11,3 km/h (2 Bft)
04.05.2016 05:55 4,3 C 4,0 C 87 % 1024,1 hPa 0,0 mm 7,5 km/h (2 Bft) S 180 0 min 2,3 C 4,5 km/h (1 Bft)
04.05.2016 06:00 4,3 C 4,2 C 87 % 1024,1 hPa 0,0 mm 4,8 km/h (1 Bft) W 270 0 min 2,3 C 0,0 km/h (0 Bft)
04.05.2016 06:02 0,0 C 4,2 C 87 % 1024,1 hPa 0,0 mm 4,8 km/h (1 Bft) W 270 0 min -1,9 C 0,0 km/h (0 Bft)
04.05.2016 06:05 0,0 C 4,2 C 87 % 1024,1 hPa 0,0 mm 3,0 km/h (1 Bft) SW 225 0 min -1,9 C 6,0 km/h (2 Bft)
04.05.2016 06:10 0,0 C 4,2 C 87 % 1024,1 hPa 0,0 mm 2,7 km/h (1 Bft) S 180 0 min -1,9 C 6,3 km/h (2 Bft)
04.05.2016 06:15 0,0 C 4,3 C 87 % 1024,2 hPa 0,0 mm 4,5 km/h (1 Bft) S 180 0 min -1,9 C 4,5 km/h (1 Bft)
04.05.2016 06:20 0,0 C 4,2 C 86 % 1024,2 hPa 0,0 mm 5,7 km/h (1 Bft) SW 225 0 min -2,1 C 8,3 km/h (2 Bft)
04.05.2016 06:25 0,0 C 4,2 C 86 % 1024,2 hPa 0,0 mm 6,3 km/h (2 Bft) S 180 0 min -2,1 C 6,3 km/h (2 Bft)
04.05.2016 06:30 0,0 C 4,3 C 86 % 1024,2 hPa 0,0 mm 5,7 km/h (1 Bft) SW 225 0 min -2,1 C 4,2 km/h (1 Bft)
04.05.2016 06:35 0,0 C 4,4 C 86 % 1024,5 hPa 0,0 mm 3,0 km/h (1 Bft) N-NW 337 0 min -2,1 C 0,0 km/h (0 Bft)
04.05.2016 06:40 0,0 C 4,4 C 86 % 1024,5 hPa 0,0 mm 1,5 km/h (1 Bft) NO 45 0 min -2,1 C 0,0 km/h (0 Bft)
04.05.2016 06:45 0,0 C 4,4 C 86 % 1024,5 hPa 0,0 mm 0,3 km/h (0 Bft) S-SW 202 0 min -2,1 C 0,0 km/h (0 Bft)
04.05.2016 06:50 0,0 C 4,4 C 86 % 1024,5 hPa 0,0 mm 0,0 km/h (0 Bft) O-SO 112 0 min -2,1 C 0,0 km/h (0 Bft)
04.05.2016 06:55 4,5 C 4,5 C 84 % 1024,6 hPa 0,0 mm 0,0 km/h (0 Bft) W-SW 247 0 min 2,0 C 0,0 km/h (0 Bft)
04.05.2016 07:00 4,5 C 4,5 C 84 % 1024,6 hPa 0,0 mm 0,0 km/h (0 Bft) NW 315 0 min 2,0 C 0,0 km/h (0 Bft)
04.05.2016 07:05 4,5 C 4,5 C 84 % 1024,6 hPa 0,0 mm 0,0 km/h (0 Bft) SO 135 0 min 2,0 C 0,0 km/h (0 Bft)
04.05.2016 07:10 4,5 C 4,6 C 84 % 1024,6 hPa 0,0 mm 0,0 km/h (0 Bft) SW 225 0 min 2,0 C 0,0 km/h (0 Bft)
04.05.2016 07:15 4,6 C 4,9 C 84 % 1024,6 hPa 0,0 mm 0,3 km/h (0 Bft) W 270 0 min 2,1 C 0,0 km/h (0 Bft)
04.05.2016 07:20 4,7 C 5,2 C 84 % 1024,6 hPa 0,0 mm 0,3 km/h (0 Bft) W-SW 247 0 min 2,2 C 0,0 km/h (0 Bft)
04.05.2016 07:25 4,8 C 5,4 C 84 % 1024,6 hPa 0,0 mm 0,0 km/h (0 Bft) W 270 0 min 2,3 C 0,0 km/h (0 Bft)
04.05.2016 07:30 4,9 C 5,6 C 84 % 1024,6 hPa 0,0 mm 0,9 km/h (0 Bft) W 270 0 min 2,4 C 3,3 km/h (1 Bft)
04.05.2016 07:35 5,1 C 6,4 C 83 % 1024,7 hPa 0,7 mm 2,7 km/h (1 Bft) N-NW 337 0 min 2,5 C 3,6 km/h (1 Bft)
04.05.2016 07:40 5,2 C 6,7 C 83 % 1024,7 hPa 0,0 mm 2,1 km/h (1 Bft) W-NW 292 0 min 2,6 C 3,0 km/h (1 Bft)
04.05.2016 07:45 5,5 C 7,0 C 83 % 1024,7 hPa 0,0 mm 1,8 km/h (1 Bft) W-NW 292 0 min 2,8 C 5,4 km/h (1 Bft)
04.05.2016 07:50 5,5 C 7,4 C 83 % 1024,7 hPa 0,0 mm 2,1 km/h (1 Bft) S-SW 202 0 min 2,8 C 3,3 km/h (1 Bft)
04.05.2016 07:55 5,6 C 7,4 C 82 % 1024,8 hPa 0,0 mm 2,1 km/h (1 Bft) N-NW 337 0 min 2,8 C 5,1 km/h (1 Bft)
04.05.2016 08:00 5,7 C 7,5 C 82 % 1024,8 hPa 0,0 mm 1,8 km/h (1 Bft) W-NW 292 0 min 2,9 C 0,0 km/h (0 Bft)
04.05.2016 08:05 6,2 C 9,1 C 81 % 1024,8 hPa 0,0 mm 3,3 km/h (1 Bft) W-NW 292 0 min 3,2 C 7,7 km/h (2 Bft)
04.05.2016 08:10 6,3 C 9,5 C 80 % 1024,8 hPa 0,0 mm 3,9 km/h (1 Bft) N-NW 337 5 min 3,1 C 8,3 km/h (2 Bft)
04.05.2016 08:15 6,2 C 8,5 C 80 % 1024,6 hPa 0,0 mm 6,0 km/h (2 Bft) N-NW 337 0 min 3,0 C 6,3 km/h (2 Bft)
04.05.2016 08:20 6,1 C 8,1 C 80 % 1024,6 hPa 0,0 mm 6,0 km/h (2 Bft) W-NW 292 0 min 2,9 C 0,0 km/h (0 Bft)
04.05.2016 08:25 6,2 C 8,4 C 79 % 1024,6 hPa 0,0 mm 3,0 km/h (1 Bft) N-NO 22 0 min 2,8 C 0,0 km/h (0 Bft)
04.05.2016 08:30 6,2 C 8,4 C 79 % 1024,6 hPa 0,0 mm 3,0 km/h (1 Bft) N-NW 337 0 min 2,8 C 3,6 km/h (1 Bft)
04.05.2016 08:35 6,3 C 8,4 C 79 % 1024,8 hPa 0,0 mm 2,7 km/h (1 Bft) NO 45 0 min 2,9 C 0,0 km/h (0 Bft)
04.05.2016 08:40 6,3 C 8,4 C 78 % 1024,8 hPa 0,0 mm 1,2 km/h (1 Bft) O 90 0 min 2,8 C 0,0 km/h (0 Bft)
04.05.2016 08:45 6,3 C 8,3 C 78 % 1024,8 hPa 0,0 mm 3,0 km/h (1 Bft) W-NW 292 0 min 2,8 C 11,3 km/h (2 Bft)
04.05.2016 08:50 6,3 C 8,1 C 78 % 1024,8 hPa 0,0 mm 4,8 km/h (1 Bft) N 360 0 min 2,8 C 5,1 km/h (1 Bft)
04.05.2016 08:55 6,4 C 8,6 C 77 % 1025,1 hPa 0,0 mm 3,6 km/h (1 Bft) N-NO 22 0 min 2,7 C 6,0 km/h (2 Bft)
04.05.2016 09:00 6,4 C 8,8 C 77 % 1025,1 hPa 0,0 mm 3,0 km/h (1 Bft) N-NW 337 0 min 2,7 C 8,9 km/h (2 Bft)
04.05.2016 09:02 6,4 C 8,8 C 77 % 1025,1 hPa 0,0 mm 3,3 km/h (1 Bft) NW 315 0 min 2,7 C 4,2 km/h (1 Bft)
04.05.2016 09:03 6,4 C 8,8 C 77 % 1025,1 hPa 0,0 mm 3,3 km/h (1 Bft) NW 315 0 min 2,7 C 4,2 km/h (1 Bft)
04.05.2016 09:05 6,4 C 8,8 C 77 % 1025,1 hPa 0,0 mm 3,3 km/h (1 Bft) NW 315 0 min 2,7 C 4,2 km/h (1 Bft)
04.05.2016 09:10 6,4 C 8,6 C 77 % 1025,1 hPa 0,0 mm 2,7 km/h (1 Bft) N-NO 22 0 min 2,7 C 5,4 km/h (1 Bft)
04.05.2016 09:15 6,3 C 8,2 C 77 % 1025,1 hPa 0,0 mm 2,7 km/h (1 Bft) N-NO 22 0 min 2,6 C 4,2 km/h (1 Bft)
04.05.2016 09:20 6,3 C 7,9 C 77 % 1025,1 hPa 0,0 mm 3,3 km/h (1 Bft) NW 315 0 min 2,6 C 6,6 km/h (2 Bft)
04.05.2016 09:25 6,2 C 7,5 C 77 % 1025,1 hPa 0,0 mm 3,0 km/h (1 Bft) W-NW 292 0 min 2,5 C 0,0 km/h (0 Bft)
04.05.2016 09:30 6,2 C 7,4 C 77 % 1025,1 hPa 0,0 mm 2,4 km/h (1 Bft) NW 315 0 min 2,5 C 3,9 km/h (1 Bft)
04.05.2016 09:35 6,2 C 7,5 C 77 % 1025,0 hPa 0,0 mm 0,9 km/h (0 Bft) NO 45 0 min 2,5 C 0,0 km/h (0 Bft)
04.05.2016 09:40 6,2 C 7,8 C 76 % 1025,0 hPa 0,0 mm 1,2 km/h (1 Bft) N 360 0 min 2,3 C 6,9 km/h (2 Bft)
04.05.2016 09:45 6,2 C 7,8 C 76 % 1025,0 hPa 0,0 mm 2,1 km/h (1 Bft) N-NO 22 0 min 2,3 C 3,6 km/h (1 Bft)
04.05.2016 09:50 6,1 C 7,8 C 76 % 1025,0 hPa 0,0 mm 2,1 km/h (1 Bft) O-NO 67 0 min 2,2 C 0,0 km/h (0 Bft)
04.05.2016 09:55 6,1 C 8,0 C 76 % 1025,1 hPa 0,0 mm 1,2 km/h (1 Bft) NO 45 0 min 2,2 C 3,0 km/h (1 Bft)
04.05.2016 10:00 6,2 C 7,9 C 75 % 1025,1 hPa 0,0 mm 0,9 km/h (0 Bft) O-NO 67 0 min 2,1 C 0,0 km/h (0 Bft)
04.05.2016 10:05 6,4 C 8,3 C 75 % 1025,1 hPa 0,0 mm 0,6 km/h (0 Bft) N-NO 22 0 min 2,3 C 0,0 km/h (0 Bft)
04.05.2016 10:10 6,5 C 8,4 C 75 % 1025,1 hPa 0,0 mm 0,3 km/h (0 Bft) NW 315 0 min 2,4 C 0,0 km/h (0 Bft)
04.05.2016 10:15 6,5 C 8,5 C 75 % 1025,1 hPa 0,0 mm 2,4 km/h (1 Bft) NW 315 0 min 2,4 C 3,3 km/h (1 Bft)
04.05.2016 10:20 6,4 C 8,5 C 75 % 1025,1 hPa 0,0 mm 2,7 km/h (1 Bft) O-NO 67 0 min 2,3 C 0,0 km/h (0 Bft)
04.05.2016 10:25 6,4 C 8,3 C 74 % 1025,1 hPa 0,0 mm 1,5 km/h (1 Bft) N-NO 22 0 min 2,1 C 0,0 km/h (0 Bft)
04.05.2016 10:30 6,4 C 8,2 C 74 % 1025,1 hPa 0,0 mm 1,8 km/h (1 Bft) NO 45 0 min 2,1 C 0,0 km/h (0 Bft)
04.05.2016 10:35 6,4 C 8,0 C 74 % 1025,1 hPa 0,0 mm 3,3 km/h (1 Bft) N 360 0 min 2,1 C 8,6 km/h (2 Bft)
04.05.2016 10:40 6,4 C 7,8 C 74 % 1025,1 hPa 0,0 mm 4,2 km/h (1 Bft) N-NW 337 0 min 2,1 C 0,0 km/h (0 Bft)
04.05.2016 10:45 6,5 C 7,8 C 74 % 1025,1 hPa 0,0 mm 2,4 km/h (1 Bft) N-NO 22 0 min 2,2 C 3,6 km/h (1 Bft)
04.05.2016 10:50 6,6 C 8,0 C 74 % 1025,1 hPa 0,0 mm 0,6 km/h (0 Bft) NW 315 0 min 2,3 C 0,0 km/h (0 Bft)
04.05.2016 10:55 6,6 C 8,1 C 74 % 1025,1 hPa 0,0 mm 2,7 km/h (1 Bft) N-NO 22 0 min 2,3 C 4,5 km/h (1 Bft)
04.05.2016 11:00 6,7 C 8,4 C 74 % 1025,1 hPa 0,0 mm 2,7 km/h (1 Bft) NW 315 0 min 2,4 C 0,0 km/h (0 Bft)
04.05.2016 11:05 7,0 C 9,0 C 73 % 1025,1 hPa 0,0 mm 3,0 km/h (1 Bft) NW 315 0 min 2,5 C 6,3 km/h (2 Bft)
04.05.2016 11:10 7,1 C 9,3 C 73 % 1025,1 hPa 0,0 mm 3,0 km/h (1 Bft) O-SO 112 0 min 2,6 C 3,9 km/h (1 Bft)
04.05.2016 11:15 7,0 C 9,9 C 72 % 1025,2 hPa 0,0 mm 3,3 km/h (1 Bft) O-NO 67 5 min 2,3 C 4,5 km/h (1 Bft)
04.05.2016 11:20 7,1 C 9,9 C 72 % 1025,2 hPa 0,0 mm 3,9 km/h (1 Bft) O-SO 112 5 min 2,4 C 4,8 km/h (1 Bft)
04.05.2016 11:25 7,3 C 10,3 C 72 % 1025,2 hPa 0,0 mm 4,5 km/h (1 Bft) O-NO 67 0 min 2,6 C 5,7 km/h (1 Bft)
04.05.2016 11:30 7,8 C 11,2 C 72 % 1025,2 hPa 0,0 mm 2,4 km/h (1 Bft) W-NW 292 0 min 3,1 C 0,0 km/h (0 Bft)
04.05.2016 11:35 8,2 C 12,9 C 71 % 1025,1 hPa 0,0 mm 3,0 km/h (1 Bft) W-SW 247 5 min 3,3 C 0,0 km/h (0 Bft)
04.05.2016 11:40 8,2 C 13,4 C 70 % 1025,1 hPa 0,0 mm 3,0 km/h (1 Bft) O-NO 67 5 min 3,1 C 4,8 km/h (1 Bft)
04.05.2016 11:45 8,1 C 13,6 C 70 % 1025,1 hPa 0,0 mm 1,8 km/h (1 Bft) NO 45 5 min 3,0 C 7,7 km/h (2 Bft)
04.05.2016 11:50 8,0 C 12,8 C 68 % 1025,1 hPa 0,0 mm 3,9 km/h (1 Bft) N-NO 22 5 min 2,5 C 6,0 km/h (2 Bft)
04.05.2016 11:55 8,3 C 12,8 C 68 % 1025,2 hPa 0,0 mm 4,5 km/h (1 Bft) SW 225 5 min 2,7 C 0,0 km/h (0 Bft)
04.05.2016 12:00 8,7 C 14,0 C 67 % 1025,2 hPa 0,0 mm 3,6 km/h (1 Bft) W-SW 247 5 min 2,9 C 4,2 km/h (1 Bft)
04.05.2016 12:02 9,3 C 15,9 C 67 % 1025,2 hPa 0,0 mm 4,8 km/h (1 Bft) S-SW 202 2 min 3,5 C 4,8 km/h (1 Bft)
04.05.2016 12:04 9,3 C 15,9 C 67 % 1025,2 hPa 0,0 mm 4,8 km/h (1 Bft) S-SW 202 2 min 3,5 C 4,8 km/h (1 Bft)
04.05.2016 12:05 9,3 C 15,9 C 67 % 1025,2 hPa 0,0 mm 4,8 km/h (1 Bft) S-SW 202 1 min 3,5 C 4,8 km/h (1 Bft)
04.05.2016 12:10 10,1 C 17,2 C 66 % 1025,2 hPa 0,0 mm 5,7 km/h (1 Bft) N-NW 337 5 min 4,0 C 5,4 km/h (1 Bft)
04.05.2016 12:15 10,1 C 17,4 C 62 % 1025,6 hPa 0,0 mm 6,3 km/h (2 Bft) N-NO 22 5 min 3,2 C 8,9 km/h (2 Bft)
04.05.2016 12:20 9,8 C 16,9 C 61 % 1025,6 hPa 0,0 mm 6,6 km/h (2 Bft) O-NO 67 5 min 2,6 C 17,6 km/h (3 Bft)
04.05.2016 12:25 9,1 C 14,8 C 59 % 1025,6 hPa 0,0 mm 5,1 km/h (1 Bft) W-NW 292 5 min 1,5 C 0,0 km/h (0 Bft)
04.05.2016 12:30 9,1 C 14,5 C 59 % 1025,6 hPa 0,0 mm 4,8 km/h (1 Bft) S 180 5 min 1,5 C 5,4 km/h (1 Bft)
04.05.2016 12:35 8,9 C 13,5 C 59 % 1025,6 hPa 0,0 mm 4,5 km/h (1 Bft) O-NO 67 5 min 1,3 C 7,2 km/h (2 Bft)
04.05.2016 12:40 8,7 C 12,5 C 59 % 1025,6 hPa 0,0 mm 5,4 km/h (1 Bft) NO 45 5 min 1,1 C 7,7 km/h (2 Bft)
04.05.2016 12:45 8,6 C 11,4 C 59 % 1025,6 hPa 0,0 mm 6,0 km/h (2 Bft) N-NO 22 5 min 1,0 C 8,6 km/h (2 Bft)
04.05.2016 12:50 8,6 C 10,9 C 59 % 1025,6 hPa 0,0 mm 6,9 km/h (2 Bft) W-NW 292 0 min 1,0 C 11,3 km/h (2 Bft)
04.05.2016 12:55 8,0 C 9,1 C 60 % 1025,6 hPa 0,0 mm 11,3 km/h (2 Bft) NW 315 0 min 0,7 C 17,3 km/h (3 Bft)
04.05.2016 13:00 7,8 C 7,9 C 61 % 1025,6 hPa 0,0 mm 12,5 km/h (3 Bft) W-NW 292 0 min 0,8 C 8,9 km/h (2 Bft)
04.05.2016 13:05 7,4 C 7,6 C 63 % 1025,6 hPa 0,0 mm 11,6 km/h (2 Bft) W 270 0 min 0,8 C 23,2 km/h (4 Bft)
04.05.2016 13:10 7,4 C 7,6 C 64 % 1025,6 hPa 0,0 mm 9,2 km/h (2 Bft) W 270 0 min 1,0 C 5,4 km/h (1 Bft)
04.05.2016 13:15 7,3 C 7,6 C 65 % 1025,4 hPa 0,0 mm 8,6 km/h (2 Bft) W-SW 247 0 min 1,2 C 13,1 km/h (3 Bft)
04.05.2016 13:20 7,3 C 7,8 C 65 % 1025,4 hPa 0,0 mm 7,5 km/h (2 Bft) W-NW 292 0 min 1,2 C 5,7 km/h (1 Bft)
04.05.2016 13:25 7,5 C 8,5 C 66 % 1025,4 hPa 0,0 mm 4,5 km/h (1 Bft) W-NW 292 0 min 1,6 C 5,1 km/h (1 Bft)
04.05.2016 13:30 7,6 C 9,1 C 66 % 1025,4 hPa 0,0 mm 3,9 km/h (1 Bft) W 270 0 min 1,7 C 3,9 km/h (1 Bft)
04.05.2016 13:35 7,9 C 10,1 C 65 % 1025,0 hPa 0,0 mm 4,2 km/h (1 Bft) SW 225 0 min 1,7 C 5,7 km/h (1 Bft)
04.05.2016 13:40 8,9 C 11,9 C 64 % 1025,0 hPa 0,0 mm 3,9 km/h (1 Bft) NW 315 0 min 2,5 C 5,4 km/h (1 Bft)
04.05.2016 13:45 10,3 C 15,1 C 62 % 1025,0 hPa 0,0 mm 6,3 km/h (2 Bft) W-SW 247 0 min 3,3 C 4,8 km/h (1 Bft)
04.05.2016 13:50 11,0 C 16,4 C 59 % 1025,0 hPa 0,0 mm 7,7 km/h (2 Bft) W-NW 292 5 min 3,3 C 10,4 km/h (2 Bft)
04.05.2016 13:55 10,8 C 17,6 C 56 % 1025,0 hPa 0,0 mm 5,1 km/h (1 Bft) O 90 5 min 2,4 C 4,8 km/h (1 Bft)
04.05.2016 14:00 10,4 C 17,3 C 56 % 1025,0 hPa 0,0 mm 4,2 km/h (1 Bft) N-NW 337 5 min 2,0 C 8,6 km/h (2 Bft)
04.05.2016 14:05 9,9 C 15,5 C 56 % 1025,0 hPa 0,0 mm 6,3 km/h (2 Bft) W 270 5 min 1,5 C 15,2 km/h (3 Bft)
04.05.2016 14:10 9,8 C 14,4 C 56 % 1025,0 hPa 0,0 mm 8,6 km/h (2 Bft) N-NO 22 5 min 1,4 C 12,5 km/h (3 Bft)
04.05.2016 14:15 9,7 C 13,8 C 56 % 1025,0 hPa 0,0 mm 7,5 km/h (2 Bft) NW 315 5 min 1,4 C 8,0 km/h (2 Bft)
04.05.2016 14:20 9,8 C 13,6 C 56 % 1025,0 hPa 0,0 mm 4,2 km/h (1 Bft) SO 135 5 min 1,4 C 0,0 km/h (0 Bft)
04.05.2016 14:25 9,9 C 13,6 C 56 % 1025,0 hPa 0,0 mm 3,0 km/h (1 Bft) W-SW 247 5 min 1,5 C 0,0 km/h (0 Bft)
04.05.2016 14:30 10,0 C 13,3 C 56 % 1025,0 hPa 0,0 mm 3,6 km/h (1 Bft) W 270 5 min 1,6 C 7,2 km/h (2 Bft)
04.05.2016 14:35 10,0 C 13,1 C 54 % 1024,9 hPa 0,0 mm 4,2 km/h (1 Bft) N-NO 22 0 min 1,1 C 3,9 km/h (1 Bft)
04.05.2016 14:40 9,9 C 13,0 C 54 % 1024,9 hPa 0,0 mm 4,8 km/h (1 Bft) O-NO 67 5 min 1,0 C 3,6 km/h (1 Bft)
04.05.2016 14:45 10,0 C 13,6 C 52 % 1024,9 hPa 0,0 mm 3,9 km/h (1 Bft) S-SW 202 5 min 0,6 C 3,3 km/h (1 Bft)
04.05.2016 14:50 10,7 C 15,1 C 53 % 1024,9 hPa 0,0 mm 3,0 km/h (1 Bft) O-NO 67 0 min 1,5 C 9,8 km/h (2 Bft)
04.05.2016 14:55 11,1 C 17,8 C 52 % 1024,7 hPa 0,0 mm 4,2 km/h (1 Bft) O-SO 112 5 min 1,6 C 8,3 km/h (2 Bft)
04.05.2016 15:00 10,6 C 16,6 C 52 % 1024,7 hPa 0,0 mm 6,9 km/h (2 Bft) N-NO 22 5 min 1,2 C 12,5 km/h (3 Bft)
04.05.2016 15:02 9,7 C 14,1 C 51 % 1024,7 hPa 0,0 mm 6,9 km/h (2 Bft) O 90 2 min 0,1 C 4,2 km/h (1 Bft)
04.05.2016 15:05 9,7 C 14,1 C 51 % 1024,7 hPa 0,0 mm 6,9 km/h (2 Bft) O 90 3 min 0,1 C 4,2 km/h (1 Bft)
04.05.2016 15:10 9,7 C 13,1 C 52 % 1024,7 hPa 0,0 mm 5,4 km/h (1 Bft) O-NO 67 5 min 0,3 C 6,9 km/h (2 Bft)
04.05.2016 15:15 9,5 C 11,9 C 52 % 1024,5 hPa 0,0 mm 5,7 km/h (1 Bft) N-NO 22 0 min 0,1 C 11,6 km/h (2 Bft)
04.05.2016 15:20 9,4 C 11,5 C 53 % 1024,5 hPa 0,0 mm 6,9 km/h (2 Bft) N-NO 22 0 min 0,3 C 8,9 km/h (2 Bft)
04.05.2016 15:25 9,3 C 10,8 C 53 % 1024,5 hPa 0,0 mm 7,7 km/h (2 Bft) NO 45 0 min 0,2 C 15,5 km/h (3 Bft)
04.05.2016 15:30 9,2 C 10,5 C 53 % 1024,5 hPa 0,0 mm 7,2 km/h (2 Bft) O-SO 112 0 min 0,1 C 6,0 km/h (2 Bft)
04.05.2016 15:35 9,1 C 10,4 C 54 % 1024,5 hPa 0,0 mm 5,4 km/h (1 Bft) O-NO 67 0 min 0,3 C 0,0 km/h (0 Bft)
04.05.2016 15:40 9,2 C 10,6 C 54 % 1024,5 hPa 0,0 mm 3,0 km/h (1 Bft) NO 45 0 min 0,4 C 0,0 km/h (0 Bft)
04.05.2016 15:45 9,6 C 11,9 C 54 % 1024,5 hPa 0,0 mm 1,5 km/h (1 Bft) O-NO 67 0 min 0,8 C 4,8 km/h (1 Bft)
04.05.2016 15:50 9,8 C 12,4 C 53 % 1024,5 hPa 0,0 mm 2,4 km/h (1 Bft) N-NW 337 0 min 0,7 C 3,6 km/h (1 Bft)
04.05.2016 15:55 11,0 C 15,6 C 54 % 1024,2 hPa 0,0 mm 2,7 km/h (1 Bft) W-SW 247 0 min 2,1 C 4,2 km/h (1 Bft)
04.05.2016 16:00 11,0 C 17,2 C 51 % 1024,2 hPa 0,0 mm 5,4 km/h (1 Bft) S-SW 202 5 min 1,3 C 14,6 km/h (3 Bft)
04.05.2016 16:05 11,1 C 17,9 C 51 % 1024,2 hPa 0,0 mm 7,7 km/h (2 Bft) S-SW 202 5 min 1,4 C 8,9 km/h (2 Bft)
04.05.2016 16:10 11,4 C 18,2 C 51 % 1024,2 hPa 0,0 mm 6,9 km/h (2 Bft) NW 315 5 min 1,6 C 9,2 km/h (2 Bft)
04.05.2016 16:15 11,6 C 18,2 C 49 % 1024,0 hPa 0,0 mm 7,2 km/h (2 Bft) N-NO 22 5 min 1,3 C 6,3 km/h (2 Bft)
04.05.2016 16:20 11,3 C 18,1 C 49 % 1024,0 hPa 0,0 mm 8,6 km/h (2 Bft) SW 225 5 min 1,0 C 5,4 km/h (1 Bft)
04.05.2016 16:25 10,4 C 15,0 C 48 % 1024,0 hPa 0,0 mm 9,8 km/h (2 Bft) NO 45 5 min -0,1 C 8,9 km/h (2 Bft)
04.05.2016 16:30 10,1 C 12,8 C 48 % 1024,0 hPa 0,0 mm 10,4 km/h (2 Bft) O 90 5 min -0,4 C 10,7 km/h (2 Bft)
04.05.2016 16:35 9,7 C 10,8 C 50 % 1024,4 hPa 0,0 mm 10,4 km/h (2 Bft) O-NO 67 0 min -0,2 C 9,2 km/h (2 Bft)
04.05.2016 16:40 9,5 C 10,3 C 51 % 1024,4 hPa 0,0 mm 8,3 km/h (2 Bft) O-NO 67 0 min -0,1 C 3,0 km/h (1 Bft)
04.05.2016 16:45 9,2 C 9,8 C 52 % 1024,4 hPa 0,0 mm 4,2 km/h (1 Bft) O-SO 112 0 min -0,1 C 0,0 km/h (0 Bft)
04.05.2016 16:50 9,0 C 9,6 C 53 % 1024,4 hPa 0,0 mm 1,5 km/h (1 Bft) S-SO 157 0 min -0,1 C 0,0 km/h (0 Bft)
04.05.2016 16:55 8,9 C 9,7 C 54 % 1024,2 hPa 0,0 mm 0,0 km/h (0 Bft) O-NO 67 0 min 0,1 C 0,0 km/h (0 Bft)
04.05.2016 17:00 9,0 C 9,8 C 54 % 1024,2 hPa 0,0 mm 0,0 km/h (0 Bft) NO 45 0 min 0,2 C 0,0 km/h (0 Bft)
04.05.2016 17:05 9,0 C 9,9 C 55 % 1024,2 hPa 0,0 mm 1,8 km/h (1 Bft) NO 45 0 min 0,5 C 6,3 km/h (2 Bft)
04.05.2016 17:10 9,0 C 9,9 C 55 % 1024,2 hPa 0,0 mm 3,6 km/h (1 Bft) NO 45 0 min 0,5 C 3,6 km/h (1 Bft)
04.05.2016 17:15 9,1 C 10,1 C 56 % 1024,1 hPa 0,0 mm 3,6 km/h (1 Bft) O-NO 67 0 min 0,8 C 0,0 km/h (0 Bft)
04.05.2016 17:20 9,2 C 10,5 C 56 % 1024,1 hPa 0,0 mm 1,8 km/h (1 Bft) NO 45 0 min 0,9 C 5,7 km/h (1 Bft)
04.05.2016 17:25 9,4 C 10,7 C 56 % 1024,1 hPa 0,0 mm 2,1 km/h (1 Bft) NO 45 0 min 1,1 C 5,4 km/h (1 Bft)
04.05.2016 17:30 9,4 C 10,8 C 56 % 1024,1 hPa 0,0 mm 3,3 km/h (1 Bft) O-NO 67 0 min 1,1 C 7,7 km/h (2 Bft)
04.05.2016 17:35 9,3 C 10,8 C 55 % 1024,1 hPa 0,0 mm 4,8 km/h (1 Bft) O-NO 67 0 min 0,7 C 8,6 km/h (2 Bft)
04.05.2016 17:40 9,2 C 10,6 C 54 % 1024,1 hPa 0,0 mm 6,3 km/h (2 Bft) NO 45 0 min 0,4 C 7,5 km/h (2 Bft)
04.05.2016 17:45 9,2 C 10,5 C 55 % 1024,1 hPa 0,0 mm 6,9 km/h (2 Bft) NO 45 0 min 0,6 C 6,3 km/h (2 Bft)
04.05.2016 17:50 9,2 C 10,5 C 55 % 1024,1 hPa 0,0 mm 6,3 km/h (2 Bft) NO 45 0 min 0,6 C 5,4 km/h (1 Bft)
04.05.2016 17:55 9,3 C 10,7 C 55 % 1023,9 hPa 0,0 mm 4,8 km/h (1 Bft) N-NO 22 0 min 0,7 C 8,0 km/h (2 Bft)
04.05.2016 18:00 9,4 C 10,8 C 55 % 1023,9 hPa 0,0 mm 4,8 km/h (1 Bft) O-NO 67 0 min 0,8 C 6,3 km/h (2 Bft)
04.05.2016 18:02 9,7 C 11,7 C 54 % 1023,9 hPa 0,0 mm 6,3 km/h (2 Bft) O-NO 67 0 min 0,9 C 12,2 km/h (2 Bft)
04.05.2016 18:06 9,7 C 11,7 C 54 % 1023,9 hPa 0,0 mm 6,3 km/h (2 Bft) O-NO 67 0 min 0,9 C 12,2 km/h (2 Bft)
04.05.2016 18:10 9,8 C 12,2 C 53 % 1023,9 hPa 0,0 mm 6,0 km/h (2 Bft) NO 45 0 min 0,7 C 7,2 km/h (2 Bft)
04.05.2016 18:15 9,7 C 12,1 C 52 % 1024,1 hPa 0,0 mm 5,7 km/h (1 Bft) O-NO 67 0 min 0,3 C 13,4 km/h (3 Bft)
04.05.2016 18:20 9,5 C 11,6 C 52 % 1024,1 hPa 0,0 mm 6,3 km/h (2 Bft) O-SO 112 0 min 0,1 C 5,7 km/h (1 Bft)
04.05.2016 18:25 9,4 C 11,1 C 52 % 1024,1 hPa 0,0 mm 6,3 km/h (2 Bft) O-SO 112 0 min 0,1 C 0,0 km/h (0 Bft)
04.05.2016 18:30 9,3 C 10,8 C 52 % 1024,1 hPa 0,0 mm 4,5 km/h (1 Bft) O-NO 67 0 min -0,0 C 6,0 km/h (2 Bft)
04.05.2016 18:35 9,6 C 11,1 C 52 % 1024,0 hPa 0,0 mm 3,3 km/h (1 Bft) W 270 0 min 0,2 C 0,0 km/h (0 Bft)
04.05.2016 18:40 9,9 C 12,3 C 53 % 1024,0 hPa 0,0 mm 2,7 km/h (1 Bft) N 360 0 min 0,8 C 8,3 km/h (2 Bft)
04.05.2016 18:45 9,9 C 12,5 C 51 % 1024,0 hPa 0,0 mm 2,1 km/h (1 Bft) S 180 5 min 0,2 C 6,6 km/h (2 Bft)
04.05.2016 18:50 9,8 C 12,1 C 51 % 1024,0 hPa 0,0 mm 2,4 km/h (1 Bft) W-NW 292 0 min 0,2 C 0,0 km/h (0 Bft)
04.05.2016 18:55 9,8 C 12,4 C 52 % 1023,8 hPa 0,0 mm 1,5 km/h (1 Bft) W 270 5 min 0,4 C 6,3 km/h (2 Bft)
04.05.2016 19:00 9,6 C 11,7 C 50 % 1023,8 hPa 0,0 mm 2,1 km/h (1 Bft) N-NO 22 0 min -0,3 C 0,0 km/h (0 Bft)
04.05.2016 19:05 9,1 C 10,6 C 52 % 1023,8 hPa 0,0 mm 1,5 km/h (1 Bft) S-SO 157 0 min -0,2 C 0,0 km/h (0 Bft)
04.05.2016 19:10 8,9 C 10,1 C 52 % 1023,8 hPa 0,0 mm 0,0 km/h (0 Bft) O-NO 67 0 min -0,4 C 0,0 km/h (0 Bft)
04.05.2016 19:15 8,5 C 9,3 C 53 % 1023,8 hPa 0,0 mm 0,0 km/h (0 Bft) SO 135 0 min -0,5 C 0,0 km/h (0 Bft)
04.05.2016 19:20 8,2 C 8,8 C 53 % 1023,8 hPa 0,0 mm 0,0 km/h (0 Bft) O-NO 67 0 min -0,8 C 0,0 km/h (0 Bft)
04.05.2016 19:25 7,9 C 8,2 C 55 % 1023,8 hPa 0,0 mm 0,0 km/h (0 Bft) S 180 0 min -0,6 C 0,0 km/h (0 Bft)
04.05.2016 19:30 7,6 C 7,8 C 56 % 1023,8 hPa 0,0 mm 0,0 km/h (0 Bft) SO 135 0 min -0,6 C 0,0 km/h (0 Bft)
04.05.2016 19:35 7,3 C 7,3 C 57 % 1023,8 hPa 0,0 mm 0,0 km/h (0 Bft) S-SO 157 0 min -0,6 C 0,0 km/h (0 Bft)
04.05.2016 19:40 7,1 C 7,0 C 59 % 1023,8 hPa 0,0 mm 0,0 km/h (0 Bft) S-SO 157 0 min -0,4 C 0,0 km/h (0 Bft)
04.05.2016 19:45 6,8 C 6,7 C 60 % 1023,8 hPa 0,0 mm 0,0 km/h (0 Bft) S-SO 157 0 min -0,4 C 0,0 km/h (0 Bft)
04.05.2016 19:50 6,5 C 6,4 C 63 % 1023,8 hPa 0,0 mm 0,6 km/h (0 Bft) SO 135 0 min -0,0 C 0,0 km/h (0 Bft)
04.05.2016 19:55 6,2 C 6,1 C 66 % 1023,8 hPa 0,0 mm 0,9 km/h (0 Bft) SO 135 0 min 0,3 C 0,0 km/h (0 Bft)
04.05.2016 20:00 6,0 C 6,0 C 62 % 1023,8 hPa 0,0 mm 0,3 km/h (0 Bft) O-SO 112 0 min -0,7 C 0,0 km/h (0 Bft)
04.05.2016 20:05 5,8 C 5,8 C 65 % 1023,8 hPa 0,0 mm 0,0 km/h (0 Bft) SO 135 0 min -0,3 C 0,0 km/h (0 Bft)
04.05.2016 20:10 5,8 C 5,7 C 65 % 1023,8 hPa 0,0 mm 0,0 km/h (0 Bft) S 180 0 min -0,3 C 0,0 km/h (0 Bft)
04.05.2016 20:15 5,6 C 5,6 C 66 % 1023,8 hPa 0,0 mm 0,3 km/h (0 Bft) S-SO 157 0 min -0,2 C 0,0 km/h (0 Bft)
04.05.2016 20:20 5,5 C 5,5 C 67 % 1023,8 hPa 0,0 mm 0,3 km/h (0 Bft) SO 135 0 min -0,1 C 0,0 km/h (0 Bft)
04.05.2016 20:25 5,2 C 5,4 C 67 % 1023,8 hPa 0,0 mm 0,0 km/h (0 Bft) SO 135 0 min -0,4 C 0,0 km/h (0 Bft)
04.05.2016 20:30 4,9 C 5,1 C 68 % 1023,8 hPa 0,0 mm 0,3 km/h (0 Bft) S-SO 157 0 min -0,5 C 0,0 km/h (0 Bft)
04.05.2016 20:35 5,0 C 5,1 C 68 % 1023,9 hPa 0,0 mm 0,3 km/h (0 Bft) SO 135 0 min -0,4 C 0,0 km/h (0 Bft)
04.05.2016 20:40 5,1 C 5,1 C 68 % 1023,9 hPa 0,0 mm 0,0 km/h (0 Bft) S 180 0 min -0,3 C 0,0 km/h (0 Bft)
04.05.2016 20:45 5,0 C 4,8 C 68 % 1023,9 hPa 0,0 mm 0,0 km/h (0 Bft) O-SO 112 0 min -0,4 C 0,0 km/h (0 Bft)
04.05.2016 20:50 5,0 C 4,7 C 69 % 1023,9 hPa 0,0 mm 0,0 km/h (0 Bft) S-SO 157 0 min -0,2 C 0,0 km/h (0 Bft)
04.05.2016 20:55 5,1 C 4,7 C 70 % 1023,8 hPa 0,0 mm 0,0 km/h (0 Bft) O-NO 67 0 min 0,1 C 0,0 km/h (0 Bft)
04.05.2016 21:00 5,1 C 4,6 C 71 % 1023,8 hPa 0,0 mm 0,0 km/h (0 Bft) O-NO 67 0 min 0,3 C 0,0 km/h (0 Bft)
04.05.2016 21:05 4,9 C 4,4 C 71 % 1023,8 hPa 0,0 mm 0,0 km/h (0 Bft) O-NO 67 0 min 0,1 C 0,0 km/h (0 Bft)
04.05.2016 21:07 4,9 C 4,4 C 71 % 1023,8 hPa 0,0 mm 0,0 km/h (0 Bft) O-NO 67 0 min 0,1 C 0,0 km/h (0 Bft)
04.05.2016 21:10 4,9 C 4,4 C 72 % 1023,8 hPa 0,0 mm 0,0 km/h (0 Bft) O-SO 112 0 min 0,3 C 0,0 km/h (0 Bft)
04.05.2016 21:15 4,8 C 4,3 C 69 % 1023,9 hPa 0,0 mm 0,0 km/h (0 Bft) O 90 0 min -0,4 C 0,0 km/h (0 Bft)
04.05.2016 21:20 4,8 C 4,2 C 72 % 1023,9 hPa 0,0 mm 0,0 km/h (0 Bft) O-SO 112 0 min 0,2 C 0,0 km/h (0 Bft)
04.05.2016 21:25 4,7 C 4,1 C 72 % 1023,9 hPa 0,0 mm 0,0 km/h (0 Bft) SO 135 0 min 0,1 C 0,0 km/h (0 Bft)
04.05.2016 21:30 4,7 C 4,1 C 73 % 1023,9 hPa 0,0 mm 0,0 km/h (0 Bft) SO 135 0 min 0,3 C 0,0 km/h (0 Bft)
04.05.2016 21:35 4,7 C 4,1 C 73 % 1024,1 hPa 0,0 mm 0,0 km/h (0 Bft) NO 45 0 min 0,3 C 0,0 km/h (0 Bft)
04.05.2016 21:40 4,6 C 4,0 C 73 % 1024,1 hPa 0,0 mm 0,0 km/h (0 Bft) O-SO 112 0 min 0,2 C 0,0 km/h (0 Bft)
04.05.2016 21:45 4,5 C 3,9 C 73 % 1024,1 hPa 0,0 mm 0,0 km/h (0 Bft) O-SO 112 0 min 0,1 C 0,0 km/h (0 Bft)
04.05.2016 21:50 4,4 C 3,8 C 73 % 1024,1 hPa 0,0 mm 0,0 km/h (0 Bft) S-SO 157 0 min -0,0 C 0,0 km/h (0 Bft)
04.05.2016 21:55 4,3 C 3,6 C 73 % 1024,1 hPa 0,0 mm 0,0 km/h (0 Bft) N-NO 22 0 min -0,1 C 0,0 km/h (0 Bft)
04.05.2016 22:00 4,2 C 3,5 C 74 % 1024,1 hPa 0,0 mm 0,0 km/h (0 Bft) O 90 0 min -0,0 C 0,0 km/h (0 Bft)
04.05.2016 22:05 3,9 C 3,2 C 74 % 1024,1 hPa 0,0 mm 0,0 km/h (0 Bft) S-SO 157 0 min -0,3 C 0,0 km/h (0 Bft)
04.05.2016 22:10 3,8 C 3,1 C 75 % 1024,1 hPa 0,0 mm 0,0 km/h (0 Bft) S-SO 157 0 min -0,2 C 0,0 km/h (0 Bft)
04.05.2016 22:15 3,8 C 3,1 C 75 % 1024,1 hPa 0,0 mm 0,0 km/h (0 Bft) O-NO 67 0 min -0,2 C 0,0 km/h (0 Bft)
04.05.2016 22:20 3,7 C 2,9 C 75 % 1024,1 hPa 0,0 mm 0,0 km/h (0 Bft) O-SO 112 0 min -0,3 C 0,0 km/h (0 Bft)
04.05.2016 22:25 3,2 C 2,6 C 75 % 1024,1 hPa 0,0 mm 0,0 km/h (0 Bft) O-SO 112 0 min -0,8 C 0,0 km/h (0 Bft)
04.05.2016 22:30 3,0 C 2,4 C 75 % 1024,1 hPa 0,0 mm 0,0 km/h (0 Bft) O-NO 67 0 min -1,0 C 0,0 km/h (0 Bft)
04.05.2016 22:35 3,0 C 2,3 C 76 % 1024,2 hPa 0,0 mm 0,0 km/h (0 Bft) NO 45 0 min -0,8 C 0,0 km/h (0 Bft)
04.05.2016 22:40 3,0 C 2,3 C 76 % 1024,2 hPa 0,0 mm 0,0 km/h (0 Bft) NO 45 0 min -0,8 C 0,0 km/h (0 Bft)
04.05.2016 22:45 2,7 C 2,0 C 77 % 1024,2 hPa 0,0 mm 0,0 km/h (0 Bft) NO 45 0 min -0,9 C 0,0 km/h (0 Bft)
04.05.2016 22:50 2,5 C 1,9 C 77 % 1024,2 hPa 0,0 mm 0,0 km/h (0 Bft) SO 135 0 min -1,1 C 0,0 km/h (0 Bft)
04.05.2016 22:55 2,3 C 1,7 C 77 % 1024,3 hPa 0,0 mm 0,0 km/h (0 Bft) N-NO 22 0 min -1,3 C 0,0 km/h (0 Bft)
04.05.2016 23:00 2,0 C 1,5 C 76 % 1024,3 hPa 0,0 mm 0,0 km/h (0 Bft) W 270 0 min -1,8 C 0,0 km/h (0 Bft)
04.05.2016 23:05 2,3 C 1,7 C 77 % 1024,3 hPa 0,0 mm 0,0 km/h (0 Bft) O-NO 67 0 min -1,3 C 0,0 km/h (0 Bft)
04.05.2016 23:10 1,9 C 1,4 C 77 % 1024,3 hPa 0,0 mm 0,0 km/h (0 Bft) O-NO 67 0 min -1,7 C 0,0 km/h (0 Bft)
04.05.2016 23:15 2,2 C 1,6 C 78 % 1024,3 hPa 0,0 mm 0,6 km/h (0 Bft) N-NO 22 0 min -1,2 C 3,9 km/h (1 Bft)
04.05.2016 23:20 2,3 C 1,7 C 79 % 1024,3 hPa 0,0 mm 0,6 km/h (0 Bft) S-SO 157 0 min -1,0 C 0,0 km/h (0 Bft)
04.05.2016 23:25 2,4 C 1,7 C 81 % 1024,3 hPa 0,0 mm 0,9 km/h (0 Bft) O-SO 112 0 min -0,5 C 0,0 km/h (0 Bft)
04.05.2016 23:30 2,4 C 1,7 C 81 % 1024,3 hPa 0,0 mm 1,8 km/h (1 Bft) O-SO 112 0 min -0,5 C 6,3 km/h (2 Bft)
04.05.2016 23:35 2,3 C 1,7 C 81 % 1024,2 hPa 0,0 mm 1,5 km/h (1 Bft) N-NO 22 0 min -0,6 C 0,0 km/h (0 Bft)
04.05.2016 23:40 2,1 C 1,5 C 81 % 1024,2 hPa 0,0 mm 1,2 km/h (1 Bft) O-SO 112 0 min -0,8 C 0,0 km/h (0 Bft)
04.05.2016 23:45 2,0 C 1,4 C 81 % 1024,2 hPa 0,0 mm 0,9 km/h (0 Bft) O-SO 112 0 min -0,9 C 0,0 km/h (0 Bft)
04.05.2016 23:50 1,6 C 1,1 C 81 % 1024,2 hPa 0,0 mm 1,2 km/h (1 Bft) NO 45 0 min -1,3 C 3,3 km/h (1 Bft)
04.05.2016 23:55 1,5 C 1,0 C 81 % 1024,2 hPa 0,0 mm 0,6 km/h (0 Bft) SO 135 0 min -1,4 C 0,0 km/h (0 Bft)
_ Min-Zeit 06:50 23:55 16:30 00:10 - 23:10 - - - 06:50 23:55
Minimum _ 0,0 C 1,0 C 48 % 1023,4 hPa - 0,0 km/h (0 Bft) - - - -2,1 C 0,0 km/h (0 Bft)
_ Max-Zeit 16:15 16:15 06:15 13:10 07:35 13:00 - - 18:55 12:10 13:05
Maximum _ 11,6 C 18,2 C 87 % 1025,6 hPa 0,7 mm 12,5 km/h
W-NW (3 Bft)
- - 5 min 4,0 C 23,2 km/h
W (4 Bft)
Durchschnitt _ 5,8 C 7,5 C 72 % 1024,4 hPa #0,7 mm 3,7 km/h (1 Bft) W-SW - #3:30 h 0,9 C 4,7 km/h (1 Bft)